Zurück zum Katalog

SATCOM 3 DEB

LostHEO
NORAD 32988·DEBRIS·🇺🇸 United States

Gestartet Dec 7, 1979 von Cape Canaveral Space Force Station

Loading…

Nächste Überflüge (nächste 24 Stunden)

TLE

VeraltetSource: Space-Track

Epoche: Jul 7, 2019, 10:56 UTC

1 32988U 79101P   19188.45576803 -.00000172  00000-0  00000+0 0  9993
2 32988  10.4567   0.5928 4802481 291.6634   8.3472  1.81167885 76694

Verfolge SATCOM 3 DEB in Echtzeit mit AllMySat

Download on the App Store